Welcome to the New NWS' Forecast!
Most changes are behind the scenes, but click here for differences you might notice.

Regional Weather Roundup (RWR)

Issued by Gray - Portland, ME (GYX)

                            
837 
ASUS41 KGYX 230005
RWRGYX
WEATHER ROUNDUP FOR MAINE AND NEW HAMPSHIRE
NATIONAL WEATHER SERVICE GRAY ME
700 PM EST MON JAN 22 2018

MEZ002-005-006-010-012-015-018-020-021-024-026-027-029-230100-
MAINE
  
CITY           SKY/WX    TMP DP  RH WIND       PRES   REMARKS
PORTLAND       CLOUDY    23  20  88 N8        30.37S                  
6HR MIN TEMP:  23; 6HR MAX TEMP:  26; 6HR PCP: TRACE;                

SANFORD        MIX PCPN  23  22  96 NE13      30.33F FOG     WCI  11  
BAR HARBOR     CLOUDY    21   7  54 NE8       30.41F                  
WISCASSET      CLOUDY    21  18  88 NE7       30.38F                  
6HR MIN TEMP:  21; 6HR MAX TEMP:  22; 6HR PCP: TRACE;                

ROCKLAND       CLOUDY    21  16  81 NE12      30.39S WCI   9          
FRYEBURG       FLURRIES  23  21  92 CALM      30.33F                  
6HR MIN TEMP:  23; 6HR MAX TEMP:  27; 6HR PCP: TRACE;                

LEWISTONAUBURN MIX PCPN  20  17  88 NE9       30.36F                  
AUGUSTA        CLOUDY    20  15  81 NE8       30.37F                  
6HR MIN TEMP:  19; 6HR MAX TEMP:  20; 6HR PCP: TRACE;                

WATERVILLE     FLURRIES  19  11  70 NE6       30.34F                  
BANGOR         CLOUDY    21  10  62 E7        30.41F                  
6HR MIN TEMP:  19; 6HR MAX TEMP:  21;                                

GREENVILLE       N/A     15  10  80 SE7       30.26F                  
6HR MIN TEMP:  15; 6HR MAX TEMP:  18;                                

MILLINOCKET    CLOUDY    21   5  50 CALM      30.39F                  
6HR MIN TEMP:  21; 6HR MAX TEMP:  23;                                

HOULTON        FAIR       9   1  70 CALM      30.39S                  
6HR MIN TEMP:   8; 6HR MAX TEMP:  21;                                

PRESQUE ISLE   FAIR       5  -1  76 S5        30.41S                  
6HR MIN TEMP:   5; 6HR MAX TEMP:  17;                                

FRENCHVILLE    FAIR       6  -6  57 N6        30.36S                  
6HR MIN TEMP:   6; 6HR MAX TEMP:  12;                                

CARIBOU        FAIR      11  -6  46 NE7       30.38F                  
6HR MIN TEMP:  10; 6HR MAX TEMP:  16;                                

$$

NHZ002-005-008-009-011-012-014-230100-
NEW HAMPSHIRE
  
CITY           SKY/WX    TMP DP  RH WIND       PRES   REMARKS
PORTSMOUTH     FRZ DRZL  29  27  93 NE9       30.29F FOG              
ROCHESTER      FRZ RAIN  24  23  96 NE8       30.30F FOG              
6HR MIN TEMP:  24; 6HR MAX TEMP:  28; 6HR PCP: TRACE;                

NASHUA         FRZ RAIN  29  28  96 VRB6      30.28F FOG              
MANCHESTER     FRZ DRZL  28  26  92 NE8       30.28F FOG              
6HR MIN TEMP:  28; 6HR MAX TEMP:  34; 6HR PCP: TRACE;                

CONCORD        CLOUDY    27  23  85 E8        30.30F                  
6HR MIN TEMP:  26; 6HR MAX TEMP:  32;                                

LACONIA        MIX PCPN  25  23  92 E9        30.30S FOG              
PLYMOUTH       MIX PCPN  27  26  94 E6        30.28F                  
BERLIN         FLURRIES  28  20  71 S8G18     30.22F                  
6HR MIN TEMP:  28; 6HR MAX TEMP:  31; 6HR PCP: TRACE;                

WHITEFIELD     LGT SNOW  30  25  81 N6        30.18S                  
6HR MIN TEMP:  30; 6HR MAX TEMP:  32; 6HR PCP: TRACE;                

JAFFREY        CLOUDY    29  28  96 VRB3      30.22F FOG              
6HR MIN TEMP:  29; 6HR MAX TEMP:  34; 6HR PCP: TRACE;                

KEENE          MIX PCPN  31  28  89 N6        30.23F                  
LEBANON        FRZ RAIN  31  26  82 VRB7      30.22F                  
6HR MIN TEMP:  31; 6HR MAX TEMP:  35; 6HR PCP: TRACE;                

MT WASHINGTON  SNOWSHWR  16  16 100 S25G32      N/A  VSB 0   WCI  -3  
6HR MIN TEMP:  15; 6HR MAX TEMP:  24; 6HR PCP: TRACE;                

$$

VTZ005-007-008-230100-
VERMONT
  
CITY           SKY/WX    TMP DP  RH WIND       PRES   REMARKS
ST JOHNSBURY     N/A     29  29 100 MISG      30.17F                  
MONTPELIER     FRZ RAIN  29  27  92 S10G18    30.19S FOG     WCI  20  
BURLINGTON     FRZ RAIN  25  22  88 SW6       30.12F                  
$$

MAZ007-012-024-CTZ003-RIZ002-NYZ038-NYZ072-230100-
SOUTHERN NEW ENGLAND AND NY
  
CITY           SKY/WX    TMP DP  RH WIND       PRES   REMARKS
BOSTON         CLOUDY    39  38  96 NE9       30.26F FOG              
WORCESTER      FOG       30  29  96 NE10G18   30.19F VSB 1/4          
NANTUCKET      CLOUDY    41  41 100 E13       30.25S                  
PROVIDENCE     CLOUDY    39  39 100 E6        30.25R FOG              
HARTFORD       LGT RAIN  37  36  96 N6        30.21R FOG              
ALBANY         LGT RAIN  33  30  88 E3        30.13R VSB 1            
NEW YORK CITY  CLOUDY    38  35  89 NE15      30.15S FOG              
$$

ANZ081-ANZ082-ANZ150-NHZ014-MEZ023>029-230100-
COASTAL MARINE OBSERVATIONS
  
STATION/POSITION TIME  TEMP    WIND        PRES    WAVE
                       AIR SEA DIR/SP/G            HT/PER
                 (UTC) (F)     (DEG/KT/KT) (MB)    (FT/S)
MOUNT DESERT ROC 0000   29      60/ 20/ 22 1028.4F
MATINICUS ROCK   2300   28      70/ 23/ 26 1027.9F
ISLE OF SHOALS   2300   34      50/ 28/ 30 1024.5F
JEFFREYS LEDGE   2336      43                N/A     8/ 7
GEORGES BANK BUO 2250   40 55              1028.8    4/ 8
$$

.............KEY..............
   WCI - WIND CHILL
   TC  - TEMPERATURE IN CELSIUS
   VSB - VISIBILITY IN MILES
   HX  - HEAT INDEX
   FAIR- INDICATES FEW OR NO CLOUDS BELOW 12,000 FT, WITH NO 
         SIGNIFICANT WEATHER AND/OR OBSTRUCTIONS TO VISIBILITY.